Location: *
(51.5000°N, 0.1100°W)
Time: 01:01:10
(UTC+00:00)

MSX - Pass Details

Date: 06 August 2024
Orbit: 895 x 904 km, 99.0° (Epoch: 09 September)

Event Time Altitude Azimuth Distance (km) Brightness Sun altitude
Rises 03:33:11 0° 9° (N) 3,544 7.8 -8.4°
Reaches altitude 10° 03:35:57 10° 358° (N) 2,599 6.8 -8.1°
Maximum altitude 03:40:36 26° 304° (NW) 1,718 5.2 -7.5°
Drops below altitude 10° 03:45:14 10° 250° (WSW) 2,587 5.6 -7.0°
Enters shadow 03:45:58 - 247° (WSW) 2,821 5.8 -6.9°
